Home   Weather   Wuhan   Past weeks
Flag for China

Past Weather in Wuhan, Hubei, China — Yesterday and Last 2 Weeks

Now
66 °F

Passing clouds.


Feels Like: 66 °F
Forecast: 75 / 63 °F
Wind: 13 mph from Southeast

Location: Wuhan Airport

Current Time: Mar 19, 2019 at 11:34:36 pm

Latest Report: Mar 19, 2019 at 10:00 pm


Visibility: 4 mi

Pressure: 29.62 "Hg

Humidity: 73%

Dew Point: 57 °F

Location of WuhanLocation

Past Weather in Wuhan — Graph

°F

Wuhan Temperature Yesterday

Maximum temperature yesterday: 66 °F (at 3:00 pm)
Minimum temperature yesterday: 55 °F (at 2:00 am)
Average temperature yesterday: 59 °F

High & Low Weather Summary for the Past Weeks

 TemperatureHumidityPressure
High72 °F (Mar 12, 2:00 pm)100% (Mar 5, 7:00 am)30.33 "Hg (Mar 5, 7:00 am)
Low45 °F (Mar 6, 5:00 am)15% (Mar 12, 3:00 pm)29.62 "Hg (Mar 19, 10:00 pm)
Average56 °F65%30.09 "Hg
* Reported Mar 4 10:00 pm — Mar 19 10:00 pm, Wuhan. Weather by CustomWeather, © 2019

Note: Actual official high and low records may vary slightly from our data, if they occured in-between our weather recording intervals... More about our weather records

Advertising

Wuhan Weather History for the Previous 24 Hours

Scroll right to see more
 ConditionsComfort  
Time TempWeatherWind HumidityBarometerVisibility
10:00 pm
Tue, Mar 19
66 °FPassing clouds.13 mph73%29.62 "Hg4 mi
9:00 pm66 °FPassing clouds.10 mph73%29.65 "Hg4 mi
8:00 pm66 °FPassing clouds.15 mph73%29.65 "Hg4 mi
7:00 pm66 °FPartly cloudy.13 mph68%29.65 "Hg4 mi
6:00 pm68 °FOvercast.13 mph64%29.65 "Hg4 mi
5:00 pm68 °FOvercast.13 mph64%29.65 "Hg4 mi
4:00 pm68 °FLight rain. Overcast.10 mph64%29.71 "Hg3 mi
3:00 pm70 °FClear.8 mph57%29.74 "Hg5 mi
2:00 pm70 °FClear.10 mph57%29.77 "Hg5 mi
1:00 pm70 °FClear.10 mph53%29.83 "Hg5 mi
12:00 pm68 °FClear.10 mph56%29.86 "Hg5 mi
11:00 am66 °FHaze.10 mph64%29.89 "Hg2 mi
10:00 am63 °FHaze.10 mph73%29.92 "Hg2 mi
9:00 am61 °FFog.8 mph72%29.95 "Hg2 mi
8:00 am57 °FFog.10 mph82%29.95 "Hg2 mi
7:00 am54 °FFog.8 mph88%29.92 "Hg1 mi
6:00 am54 °FFog.8 mph88%29.92 "Hg2 mi
5:00 am55 °FFog.6 mph88%29.92 "Hg2 mi
4:00 am55 °FFog.6 mph88%29.92 "Hg2 mi
3:00 am55 °FFog.8 mph88%29.95 "Hg2 mi
2:00 am55 °FFog.6 mph88%29.95 "Hg2 mi
1:00 am55 °FClear.3 mph82%29.98 "Hg4 mi
12:00 am55 °FClear.3 mph82%29.98 "Hg4 mi
11:00 pm
Mon, Mar 18
55 °FClear.3 mph88%29.98 "Hg10 mi
Weather by CustomWeather, © 2019

See weather overview